Theta_e
312 311 310 309 310 310 310 308 306 305 306 306 306 307 307 308 308 308 307 306 306 305
311 311 310 310 311 310 308 305 305 305 305 305 306 306 307 307 307 307 307 307 306 305
310 311 310 310 308 306 305 304 304 303 303 303 304 304 305 305 305 304 305 305 304 304
310 310 309 307 306 304 304 303 302 301 301 300 300 301 301 300 300 300 301 302 302 301
310 307 306 305 304 303 302 301 301 300 299 299 299 299 299 298 298 298 298 299 299 298
306 305 304 303 301 301 300 300 299 299 298 298 298 298 298 297 297 297 297 297 297 297
304 304 303 301 300 300 300 299 299 298 298 297 297 297 296 296 296 296 296 296 296 296
302 301 300 299 299 299 299 298 298 298 297 297 296 295 295 295 295 295 295 295 295 296
298 298 299 299 298 298 298 298 297 297 296 296 295 294 294 295 295 295 294 294 294 295
297 297 298 298 297 297 297 297 296 296 295 294 294 292 293 295 295 295 294 294 293 293
297 297 297 297 297 297 297 296 296 294 294 293 293 291 293 294 295 294 294 293 293 292
297 297 296 296 296 297 296 295 293 293 292 292 292 291 292 293 293 292 292 292 292 291
297 297 296 297 296 295 293 292 291 291 291 291 291 292 291 291 291 290 290 291 291 291
296 296 296 295 293 291 290 290 289 289 290 290 291 291 290 291 291 289 288 288 289 290
Wind_Speed
10 7 6 5 5 4 4 4 5 4 2 3 3 3 4 3 3 4 5 7 6 5
8 7 6 7 8 6 5 4 4 4 4 3 2 2 2 2 3 4 5 5 6 6
10 10 8 7 8 7 5 5 5 4 3 2 2 2 3 2 2 4 4 4 6 6
9 9 7 7 6 5 5 5 5 5 4 3 3 4 3 3 4 5 5 5 6 6
8 7 6 6 6 6 7 6 6 5 4 4 4 4 4 4 4 5 6 5 6 6
8 8 8 7 7 7 6 6 5 4 4 4 4 4 4 4 5 5 6 6 6 6
8 8 7 6 6 6 5 5 5 4 4 4 4 4 4 5 5 6 6 6 6 6
6 6 6 7 7 6 6 5 5 5 5 5 4 3 4 5 6 6 6 6 6 6
8 8 8 8 8 7 7 7 6 6 4 4 3 0 5 7 6 6 6 6 6 6
8 9 9 8 8 8 7 5 5 4 4 5 4 3 5 6 6 6 6 7 7 7
9 9 7 7 7 5 4 4 4 4 5 5 3 4 6 6 7 7 8 8 8 9
8 7 7 6 5 4 4 4 4 3 4 5 5 5 7 7 7 8 10 9 9 9
6 6 6 5 5 4 4 4 3 4 5 6 7 6 9 8 6 9 8 9 9 11
5 5 4 4 3 3 4 4 5 6 6 7 7 8 10 11 8 8 8 8 8 8
Wind_Direction
204 195 183 172 168 178 186 184 177 211 204 226 222 223 232 247 263 273 256 257 253 268
196 187 180 172 182 179 176 174 183 194 214 209 245 260 266 270 276 260 270 273 267 260
192 194 179 177 187 171 160 174 191 196 192 174 235 229 236 253 260 266 259 266 262 259
190 190 173 179 179 165 160 182 189 189 187 187 219 224 231 239 251 255 263 256 264 265
172 172 180 179 170 167 179 190 188 187 184 196 217 234 251 262 259 272 274 275 273 275
170 178 186 180 177 189 183 187 180 187 208 221 236 253 265 275 276 271 270 271 273 281
179 187 188 181 185 187 183 192 192 201 215 225 231 240 252 264 270 268 269 272 272 277
178 179 180 184 187 185 191 200 201 206 213 224 235 250 263 262 270 274 282 278 274 271
183 186 193 192 191 193 199 203 204 214 226 239 248 233 263 277 283 281 280 284 283 278
194 199 199 198 198 206 210 206 219 234 253 257 252 231 260 261 265 267 270 275 279 279
202 206 198 200 209 212 215 230 247 244 242 251 257 260 269 276 270 269 271 272 276 279
205 205 203 210 215 218 223 228 230 232 230 246 253 217 256 269 272 268 269 270 269 271
208 215 216 220 207 196 219 225 213 230 233 240 255 232 256 264 268 271 274 272 268 261
195 204 205 174 176 194 213 224 234 245 242 244 250 263 266 267 269 273 279 279 277 270